Weather Service Report


699 
ASCA42 TJSJ 010010
RWRPR 
PUERTO RICO/U.S. VIRGIN ISLANDS HOURLY WEATHER ROUNDUP
NATIONAL WEATHER SERVICE SAN JUAN PR
800 PM AST SUN APR 30 2017

PRZ001>002-007>008-010-010100-
PUERTO RICO
  
CITY           SKY/WX    TMP DP  RH WIND       PRES   REMARKS
SAN JUAN LMM   MOCLDY    79  73  83 E14       30.04R                  
CEIBA          LGT RAIN  75  73  94 E7        30.07R                  
$$

VIZ001>002-010100-
U.S. VIRGIN ISLANDS
  
CITY           SKY/WX    TMP DP  RH WIND       PRES   REMARKS
CHARLOTTE AMA  LGT RAIN  73  73 100 E5        30.04R                  
CHRISTIANSTED  PTCLDY    79  72  78 E12       30.03R                  
$$

HOURLY WEATHER ROUNDUP FOR THE NEWS MEDIA
  
CITY           SKY/WX    TMP DP  RH WIND       PRES   REMARKS
ORLANDO        CLEAR     80  68  66 SE15      30.08R                  
NEW YORK       CLOUDY    51  41  68 E17       30.20F                  
NEWARK         CLOUDY    53  41  63 E7G18     30.19F                  
CHICAGO        LGT RAIN  43  42  97 NE10      29.72F VSB 1            
HARTFORD       CLOUDY    47  38  71 SE10      30.25F                  
BOSTON         CLOUDY    47  38  71 SE6       30.28R                  
DALLAS         MOSUNNY   65  32  29 W23G41    29.85R                  
PHILADELPHIA   CLOUDY    56  48  74 E14       30.13F                  
LOS ANGELES    SUNNY     70  50  49 W13       30.00F                  
WASHINGTON DC  MOCLDY    80  62  54 S10G18    30.00R                  

Return to Home page


Western Regional Climate Center, wrcc@dri.edu